2023/08/30 00:00:00,27.6,23.0
2023/08/30 00:10:00,28.1,22.6
2023/08/30 00:20:00,28.9,22.3
2023/08/30 00:30:00,30.4,22.6
2023/08/30 00:40:00,32.0,22.2
2023/08/30 00:50:00,32.4,22.3
2023/08/30 01:00:00,33.5,22.5
2023/08/30 01:10:00,29.1,23.3
2023/08/30 01:20:00,27.3,23.5
2023/08/30 01:30:00,27.0,23.3
2023/08/30 01:40:00,27.0,23.7
2023/08/30 01:50:00,26.6,23.7
2023/08/30 02:00:00,24.7,23.8
2023/08/30 02:10:00,26.2,22.9
2023/08/30 02:20:00,26.6,22.7
2023/08/30 02:30:00,27.0,22.6
2023/08/30 02:40:00,27.3,22.9
2023/08/30 02:50:00,28.9,23.0
2023/08/30 03:00:00,27.8,23.0
2023/08/30 03:10:00,27.2,23.1
2023/08/30 03:20:00,27.3,22.9
2023/08/30 03:30:00,28.5,22.6
2023/08/30 03:40:00,31.9,23.1
2023/08/30 03:50:00,29.2,23.1
2023/08/30 04:00:00,32.2,23.7
2023/08/30 04:10:00,29.5,23.7
2023/08/30 04:20:00,30.3,23.3
2023/08/30 04:30:00,34.2,23.0
2023/08/30 04:40:00,36.2,22.6
2023/08/30 04:50:00,36.3,22.6
2023/08/30 05:00:00,36.1,22.9
2023/08/30 05:10:00,36.7,22.2
2023/08/30 05:20:00,37.0,21.5
2023/08/30 05:30:00,37.2,21.6
2023/08/30 05:40:00,37.5,21.6
2023/08/30 05:50:00,37.6,21.6
2023/08/30 06:00:00,37.5,21.7
2023/08/30 06:10:00,37.4,21.9
2023/08/30 06:20:00,37.5,22.0
2023/08/30 06:30:00,37.4,22.6
2023/08/30 06:40:00,37.1,22.3
2023/08/30 06:50:00,37.4,22.5
2023/08/30 07:00:00,37.6,22.1
2023/08/30 07:10:00,37.6,22.2
2023/08/30 07:20:00,37.7,22.1
2023/08/30 07:30:00,37.8,22.2
2023/08/30 07:40:00,37.8,23.4
2023/08/30 07:50:00,38.0,23.9
2023/08/30 08:00:00,37.8,24.2
2023/08/30 08:10:00,37.6,24.8
2023/08/30 08:20:00,37.4,25.9
2023/08/30 08:30:00,36.2,25.6
2023/08/30 08:40:00,36.4,25.7
2023/08/30 08:50:00,35.5,25.4
2023/08/30 09:00:00,37.4,26.1
2023/08/30 09:10:00,34.9,26.0
2023/08/30 09:20:00,36.9,26.8
2023/08/30 09:30:00,35.3,26.7
2023/08/30 09:40:00,48.2,26.9
2023/08/30 09:50:00,47.9,26.5
2023/08/30 10:00:00,40.3,26.4
2023/08/30 10:10:00,34.2,27.5
2023/08/30 10:20:00,30.4,27.8
2023/08/30 10:30:00,---,27.6
2023/08/30 10:40:00,38.4,28.2
2023/08/30 10:50:00,---,28.9
2023/08/30 11:00:00,23.2,28.2
2023/08/30 11:10:00,31.7,28.6
2023/08/30 11:20:00,10.5,28.0
2023/08/30 11:30:00,12.2,28.2
2023/08/30 11:40:00, 6.7,29.4
2023/08/30 11:50:00, 0.1,30.1
2023/08/30 12:00:00, 6.8,30.1
2023/08/30 12:10:00, 0.2,30.3
2023/08/30 12:20:00, 0.3,30.0
2023/08/30 12:30:00, 0.5,30.1
2023/08/30 12:40:00, 7.6,30.6
2023/08/30 12:50:00,11.6,30.3
2023/08/30 13:00:00,25.2,30.3
2023/08/30 13:10:00,35.4,29.3
2023/08/30 13:20:00, 6.0,28.6
2023/08/30 13:30:00,41.5,29.0
2023/08/30 13:40:00,---,29.7
2023/08/30 13:50:00,---,29.3
2023/08/30 14:00:00,---,29.5
2023/08/30 14:10:00, 0.1,30.3
2023/08/30 14:20:00, 0.0,28.7
2023/08/30 14:30:00,---,28.2
2023/08/30 14:40:00,56.8,26.9
2023/08/30 14:50:00,---,25.1
2023/08/30 15:00:00,16.0,23.1
2023/08/30 15:10:00,25.7,23.5
2023/08/30 15:20:00,26.1,24.2
2023/08/30 15:30:00,27.5,24.7
2023/08/30 15:40:00,30.8,25.0
2023/08/30 15:50:00,31.7,26.0
2023/08/30 16:00:00,30.0,25.4
2023/08/30 16:10:00,32.2,26.8
2023/08/30 16:20:00,30.8,26.7
2023/08/30 16:30:00,31.2,26.3
2023/08/30 16:40:00,33.1,25.5
2023/08/30 16:50:00,34.5,25.0
2023/08/30 17:00:00,35.2,24.4
2023/08/30 17:10:00,35.3,24.7
2023/08/30 17:20:00,35.3,24.7
2023/08/30 17:30:00,35.3,24.3
2023/08/30 17:40:00,35.4,24.1
2023/08/30 17:50:00,35.1,24.2
2023/08/30 18:00:00,35.2,23.9
2023/08/30 18:10:00,35.2,24.0
2023/08/30 18:20:00,35.3,23.5
2023/08/30 18:30:00,35.5,23.3
2023/08/30 18:40:00,35.5,23.1
2023/08/30 18:50:00,35.3,23.0
2023/08/30 19:00:00,35.2,22.7
2023/08/30 19:10:00,35.9,22.8
2023/08/30 19:20:00,35.6,22.8
2023/08/30 19:30:00,35.9,22.8
2023/08/30 19:40:00,36.0,22.8
2023/08/30 19:50:00,35.3,23.6
2023/08/30 20:00:00,35.3,23.4
2023/08/30 20:10:00,34.3,23.5
2023/08/30 20:20:00,32.5,23.7
2023/08/30 20:30:00,32.5,23.1
2023/08/30 20:40:00,30.4,23.8
2023/08/30 20:50:00,33.7,24.0
2023/08/30 21:00:00,32.4,24.0
2023/08/30 21:10:00,32.7,23.9
2023/08/30 21:20:00,31.2,24.3
2023/08/30 21:30:00,---,24.2
2023/08/30 21:40:00,29.2,24.0
2023/08/30 21:50:00,36.8,24.0
2023/08/30 22:00:00,34.6,23.9
2023/08/30 22:10:00,33.1,23.7
2023/08/30 22:20:00,34.3,24.0
2023/08/30 22:30:00, 6.0,24.0
2023/08/30 22:40:00,30.6,24.4
2023/08/30 22:50:00,25.0,24.3
2023/08/30 23:00:00,24.4,24.5
2023/08/30 23:10:00,26.8,24.3
2023/08/30 23:20:00,24.7,24.3
2023/08/30 23:30:00,25.9,24.4
2023/08/30 23:40:00,18.0,24.3
2023/08/30 23:50:00,---,24.1
